Location: Songkhla
(7.2000°N, 100.6000°E)
Time: 16:15:50
(UTC+07:00)

ISS - Pass Details

Date: 12 May 2021
Orbit: 417 x 422 km, 51.6° (Epoch: 21 June)

Event Time Altitude Azimuth Distance (km) Brightness Sun altitude
Rises 19:49:07 0° 216° (SW) 2,347 0.2 -19.9°
Reaches altitude 10° 19:51:12 10° 215° (SW) 1,484 -0.8 -20.4°
Enters shadow 19:53:36 45° 215° (SW) 578 -3.1 -20.9°
